Location: Ferques
(50.8300°N, 1.7599°E)
Time: 15:26:18
(UTC+00:00)

ASTEX 1 - Pass Details

Date: 19 May 2025
Orbit: 715 x 734 km, 92.7° (Epoch: 18 June)

Event Time Altitude Azimuth Distance (km) Brightness Sun altitude
Rises 23:17:16 0° 10° (N) 3,163 8.1 -18.8°
Reaches altitude 10° 23:19:41 10° 17° (NNE) 2,239 6.9 -18.9°
Maximum altitude 23:24:25 44° 90° (E) 1,012 4.0 -19.0°
Enters shadow 23:26:13 31° 138° (SE) 1,268 4.2 -19.0°
